Time,TemperatureF,DewpointF,PressureIn,WindDirection,WindDirectionDegrees,WindSpeedMPH,WindSpeedGustMPH,Humidity,HourlyPrecipIn,Conditions,Clouds,dailyrainin,SoftwareType,DateUTC
2013-10-02 09:52:00,82.0,52.0,29.81,NNW,327,0.0,0.0,36,0.00,,,0.00,,2013-10-02 16:52:00,
2013-10-02 10:52:00,89.0,60.0,29.81,SE,130,3.0,10.0,38,0.00,,,0.00,,2013-10-02 17:52:00,
2013-10-02 11:21:00,90.0,60.0,29.81,SSE,165,3.0,15.0,37,0.00,,,0.00,,2013-10-02 18:21:00,
2013-10-02 11:52:00,91.0,62.0,29.80,SW,214,2.0,13.0,38,0.00,,,0.00,,2013-10-02 18:52:00,
2013-10-02 12:21:00,92.0,60.0,29.79,SSE,167,2.0,15.0,34,0.00,,,0.00,,2013-10-02 19:21:00,
2013-10-02 12:52:00,93.0,59.0,29.78,SE,133,4.0,13.0,32,0.00,,,0.00,,2013-10-02 19:52:00,
2013-10-02 13:22:00,94.0,59.0,29.76,SE,138,2.0,14.0,31,0.00,,,0.00,,2013-10-02 20:22:00,
2013-10-02 13:52:00,94.0,57.0,29.75,SSW,200,3.0,13.0,29,0.00,,,0.00,,2013-10-02 20:52:00,
2013-10-02 14:22:00,95.0,57.0,29.73,SSW,197,3.0,12.0,28,0.00,,,0.00,,2013-10-02 21:22:00,
2013-10-02 14:54:00,96.0,57.0,29.72,SSE,165,5.0,12.0,27,0.00,,,0.00,,2013-10-02 21:54:00,
2013-10-02 15:23:00,95.0,56.0,29.71,South,187,3.0,16.0,27,0.00,,,0.00,,2013-10-02 22:23:00,
2013-10-02 15:33:00,95.0,56.0,29.71,South,187,3.0,16.0,27,0.00,,,0.00,,2013-10-02 22:33:00,
2013-10-02 15:53:00,95.0,56.0,29.71,SSW,207,2.0,10.0,27,0.00,,,0.00,,2013-10-02 22:53:00,
2013-10-02 16:22:00,95.0,57.0,29.70,SSE,152,3.0,12.0,28,0.00,,,0.00,,2013-10-02 23:22:00,
2013-10-02 16:52:00,95.0,57.0,29.69,SSW,200,3.0,10.0,28,0.00,,,0.00,,2013-10-02 23:52:00,
2013-10-02 17:22:00,95.0,57.0,29.69,SSE,157,0.0,7.0,28,0.00,,,0.00,,2013-10-03 00:22:00,
2013-10-02 17:32:00,95.0,57.0,29.69,SSE,157,0.0,7.0,28,0.00,,,0.00,,2013-10-03 00:32:00,
2013-10-02 20:22:00,86.0,52.0,29.70,SSE,165,2.0,7.0,31,0.00,,,0.00,,2013-10-03 03:22:00,
2013-10-02 20:54:00,85.0,52.0,29.71,SSE,147,2.0,13.0,32,0.00,,,0.00,,2013-10-03 03:54:00,
2013-10-02 21:24:00,84.0,52.0,29.71,SSE,147,2.0,12.0,33,0.00,,,0.00,,2013-10-03 04:24:00,
2013-10-02 21:53:00,83.0,52.0,29.72,SSE,167,2.0,12.0,35,0.00,,,0.00,,2013-10-03 04:53:00,
2013-10-02 22:23:00,82.0,55.0,29.72,SSE,161,1.0,9.0,39,0.00,,,0.00,,2013-10-03 05:23:00,
2013-10-02 22:52:00,81.0,54.0,29.72,South,172,2.0,7.0,40,0.00,,,0.00,,2013-10-03 05:52:00,
2013-10-02 23:22:00,79.0,55.0,29.72,SSE,164,1.0,10.0,43,0.00,,,0.00,,2013-10-03 06:22:00,
2013-10-02 23:52:00,78.0,56.0,29.72,SE,133,2.0,9.0,47,0.00,,,0.00,,2013-10-03 06:52:00,